CHINASAT 19

导读

中星19号(CHINASAT 19)是中国于2022年11月5日在西昌卫星发射中心,通过长征三号乙增强型运载火箭成功发射的高通量通信卫星,由中国空间技术研究院抓总研制,采用东方红四号增强型卫星平台,定点于东经163度地球静止轨道。它配备C、Ku和Ka多频段通信载荷,覆盖中国东部、东南亚及北美太平洋航线,提供高速通信与互联网接入,服务远洋运输和航空通信,是我国高通量卫星网络的重要延伸,设计寿命15年。

基本信息
目录编号:
54230
目录名称:
CHINASAT 19
国际标识:
2022-148A
轨道中心:
EARTH
卫星名称:
CHINASAT 19
卫星全名:
--
卫星状态:
在轨 (已飞行1324 天)
发射日期:
2022-11-05 UTC
国别 :
中国 (CN)
星等 :
--
轨道信息
数据来源 国际轨道数据 AOE轨道数据
星历时间 2026-06-21T13:23:39+0800
10小时前
查看轨道信息
2026-06-21T17:00:00+0800
6小时前
查看轨道信息
半长轴 42164.7km 42164.7km
偏心率 0.0002514 0.0002601
轨道倾角 0.016° 0.018°
近地点辐角 48.672° 38.548°
升交点赤经 62.691° 70.639°
平近点角 42.162° 98.575°
近地点 35775.962km 35775.595km
远地点 35797.164km 35797.531km
周期 1436.095分钟 1436.095分钟
每日圈数 1.002719 1.002719
详细信息
使用方式:
暂无
2D轨道图
3D轨道图
轨道高度分析图
轨道倾角分析图
轨道综合分析图
查看轨道综合分析图